Regional Weather Roundup
Issued by NWS

Home | Current Version | Previous Version | Text Only | Print | Product List | Glossary On
Versions: 1 2 3 4 5 6 7 8 9 10 11 12 13 14 15 16 17 18 19 20 21 22 23 24 25 26 27 28 29 30 31 32 33 34 35 36 37 38 39 40 41 42 43 44 45 46 47 48 49 50
000
ASUS43 KMKX 191821
RWRWI

WISCONSIN REGIONAL WEATHER ROUNDUP
NATIONAL WEATHER SERVICE MILWAUKEE/SULLIVAN WI
1200 PM CST SUN NOV 19 2017

NOTE: "FAIR" INDICATES FEW OR NO CLOUDS BELOW 12,000 FEET WITH NO
SIGNIFICANT WEATHER AND/OR OBSTRUCTIONS TO VISIBILITY.

WIZ001-002-006>008-014>016-023>028-191900-
NORTHWEST WISCONSIN

CITY           SKY/WX    TMP DP  RH WIND       PRES   REMARKS
SUPERIOR ARPT  CLOUDY    23  10  59 W10       29.97F WCI  12
6HR MIN TEMP:  12; 6HR MAX TEMP:  23;

ASHLAND        CLOUDY    23   8  52 SW13      29.96F WCI  11
6HR MIN TEMP:  14; 6HR MAX TEMP:  23;

HAYWARD        CLOUDY    24   8  50 SW7       29.95F WCI  16
6HR MIN TEMP:  12; 6HR MAX TEMP:  24;

SIREN          CLOUDY    27  12  53 W7        29.98F WCI  20
6HR MIN TEMP:  13; 6HR MAX TEMP:  27;

CUMBERLAND     PTSUNNY   27  10  50 SW8       29.97F WCI  18
RICE LAKE      SUNNY     27  12  53 SW7       30.00F WCI  19
6HR MIN TEMP:  15; 6HR MAX TEMP:  27;

CHETEK         MOSUNNY   28  11  49 W6        29.99F WCI  21
6HR MIN TEMP:  14; 6HR MAX TEMP:  28;

LADYSMITH      MOSUNNY   27  11  51 W8        29.98F WCI  18
6HR MIN TEMP:  15; 6HR MAX TEMP:  27;

EAU CLAIRE     SUNNY     28  11  48 W9        30.01F WCI  19
6HR MIN TEMP:  15; 6HR MAX TEMP:  28;

MENOMONIE      SUNNY     31  12  46 SW7       30.01F WCI  24
6HR MIN TEMP:  17; 6HR MAX TEMP:  31;

NEW RICHMOND   SUNNY     30  11  46 SW8       30.00F WCI  22
6HR MIN TEMP:  14; 6HR MAX TEMP:  30;

OSCEOLA        SUNNY     30  13  49 SW6       30.03F WCI  24
6HR MIN TEMP:  15; 6HR MAX TEMP:  30;

$$

WIZ003>005-009-010-017-018-191900-
NORTH CENTRAL WISCONSIN

CITY           SKY/WX    TMP DP  RH WIND       PRES   REMARKS
MANITOWISH WTR CLOUDY    19  13  76 W9        29.89F WCI   8
6HR MIN TEMP:  13; 6HR MAX TEMP:  19;

ARBOR VITAE    SUNNY     22  14  73 W9        29.90F WCI  11
6HR MIN TEMP:  17; 6HR MAX TEMP:  22;

WOODRUFF       SUNNY     22  14  73 W9        29.90F WCI  11
6HR MIN TEMP:  17; 6HR MAX TEMP:  22;

RHINELANDER    SUNNY    N/A N/A N/A W9        29.91F
                                      6HR PCP: TRACE;

EAGLE RIVER    MOSUNNY   18   9  68 W8        29.89F WCI   8
6HR MIN TEMP:  15; 6HR MAX TEMP:  18;

LAND O LAKES   FLURRIES  19  13  76 NW7       29.90F WCI  10
6HR MIN TEMP:  16; 6HR MAX TEMP:  19;

PHILLIPS       MOSUNNY   22   9  55 W10       29.92F WCI  12
6HR MIN TEMP:  12; 6HR MAX TEMP:  24;

TOMAHAWK       SUNNY     24   8  52 NW10      29.93F WCI  13
6HR MIN TEMP:  14; 6HR MAX TEMP:  24;

MEDFORD        SUNNY     24  10  55 W9        29.94F WCI  14
6HR MIN TEMP:  14; 6HR MAX TEMP:  24;

MERRILL        SUNNY     25   8  48 NW12      29.95F WCI  14
6HR MIN TEMP:  17; 6HR MAX TEMP:  25;

$$

WIZ029-030-035-036-043>047-191900-
CENTRAL WISCONSIN

CITY           SKY/WX    TMP DP  RH WIND       PRES   REMARKS
WAUSAU         SUNNY     24   9  52 W10       29.95F WCI  14
6HR MIN TEMP:  18; 6HR MAX TEMP:  25;

MOSINEE        MOSUNNY   25  10  54 W9        29.97F WCI  15
MARSHFIELD     SUNNY     26   9  48 W10       29.96F WCI  16
6HR MIN TEMP:  16; 6HR MAX TEMP:  26;

STEVENS POINT  SUNNY     24   8  50 W8G18     29.98F WCI  15
6HR MIN TEMP:  18; 6HR MAX TEMP:  24;

WAUPACA        SUNNY     31  10  42 W14       30.00F WCI  20
6HR MIN TEMP:  24; 6HR MAX TEMP:  31;

WAUTOMA        SUNNY     28  11  48 W14       30.01F WCI  17
6HR MIN TEMP:  20; 6HR MAX TEMP:  28;

WISC RAPIDS    SUNNY     28  10  46 W10G17    30.01F WCI  19
6HR MIN TEMP:  18; 6HR MAX TEMP:  28;

CAMP DOUGLAS   MOSUNNY   28  10  47 W12       30.04F WCI  18
$$

WIZ011>013-019>022-031-037>040-048>050-191900-
NORTHEAST WISCONSIN

CITY           SKY/WX    TMP DP  RH WIND       PRES   REMARKS
ANTIGO         SUNNY     23  10  57 NW12G18   29.93S WCI  11
6HR MIN TEMP:  17; 6HR MAX TEMP:  23;

SHAWANO        SUNNY     30  12  45 W9G17     29.96S WCI  22
6HR MIN TEMP:  25; 6HR MAX TEMP:  31;

OCONTO         MOSUNNY   28  12  50 W15       29.95F WCI  17
STURGEON BAY   CLOUDY    25  14  63 NW10      29.95S WCI  15
6HR MIN TEMP:  24; 6HR MAX TEMP:  27; 6HR PCP: TRACE;

GREEN BAY      SUNNY     29  16  58 W14       29.97F WCI  18
6HR MIN TEMP:  25; 6HR MAX TEMP:  29;

MANITOWOC      SUNNY     28  15  58 W16       29.96F WCI  16
6HR MIN TEMP:  26; 6HR MAX TEMP:  29; 6HR PCP: TRACE;

APPLETON       SUNNY     28  10  47 W14G25    29.96F WCI  17
CLINTONVILLE   SUNNY     28   9  43 W13       29.97F WCI  18
OSHKOSH        SUNNY     28  13  53 W14G20    29.99S WCI  17
6HR MIN TEMP:  23; 6HR MAX TEMP:  28;

$$

WIZ032>034-041-042-053>061-191900-
SOUTHWEST WISCONSIN

CITY           SKY/WX    TMP DP  RH WIND       PRES   REMARKS
LA CROSSE      SUNNY     32  12  43 W6        30.05F WCI  26
6HR MIN TEMP:  20; 6HR MAX TEMP:  33;

SPARTA         SUNNY     30  14  51 W8        30.05F WCI  22
6HR MIN TEMP:  18; 6HR MAX TEMP:  30;

VIROQUA        SUNNY     28  15  58 W6        30.03F WCI  22
6HR MIN TEMP:  18; 6HR MAX TEMP:  28;

BOSCOBEL       MOSUNNY   32  11  41 W7        30.09F WCI  26
6HR MIN TEMP:  21; 6HR MAX TEMP:  32;

PRAIRIE DU CHI MOSUNNY   32  11  42 W7        30.09F WCI  25
6HR MIN TEMP:  21; 6HR MAX TEMP:  32;

PLATTEVILLE    MOSUNNY   31  16  54 W9G17     30.07F WCI  23
6HR MIN TEMP:  21; 6HR MAX TEMP:  31;

$$

WIZ056-057-062-063-064-067-068-191900-
SOUTH CENTRAL WISCONSIN

CITY           SKY/WX    TMP DP  RH WIND       PRES   REMARKS
REEDSBURG      SUNNY     29  10  44 NW10      30.04F WCI  20
6HR MIN TEMP:  19; 6HR MAX TEMP:  29;

BARABOO/DELLS  SUNNY     30   9  41 NW7       30.03F WCI  23
6HR MIN TEMP:  19; 6HR MAX TEMP:  30;

LONE ROCK      MOSUNNY   31  13  47 W15       30.07F WCI  20
6HR MIN TEMP:  21; 6HR MAX TEMP:  31;

MINERAL POINT  SUNNY     32  16  51 W10       30.04F WCI  24
MADISON        MOSUNNY   29  12  49 VRB7G17   30.04F WCI  22
6HR MIN TEMP:  22; 6HR MAX TEMP:  29;

MIDDLETON      SUNNY     31  14  48 W10       30.04F WCI  22
6HR MIN TEMP:  23; 6HR MAX TEMP:  32;

WATERTOWN      SUNNY     29  14  52 W13       30.03S WCI  19
6HR MIN TEMP:  22; 6HR MAX TEMP:  29;

MONROE         SUNNY     30  14  51 W13G20    30.04F WCI  20
JANESVILLE     MOSUNNY   32  16  51 W15       30.05F WCI  22
$$

WIZ051-052-058>065-066-070>072-191900-
SOUTHEAST WISCONSIN

CITY           SKY/WX    TMP DP  RH WIND       PRES   REMARKS
MILWAUKEE      MOSUNNY   32  15  49 W14G29    30.01R WCI  22
6HR MIN TEMP:  28; 6HR MAX TEMP:  32;

WAUKESHA       SUNNY     28  14  54 W14G24    30.02R WCI  17
MILWAUKEE/TIMM MOSUNNY   30  10  43 NW17G24   30.01S WCI  18
RACINE         SUNNY     32  15  49 W15G29    30.03R WCI  22
6HR MIN TEMP:  27; 6HR MAX TEMP:  32;

BURLINGTON     SUNNY     34  20  57 NW13G21   30.03S WCI  25
6HR MIN TEMP:  27; 6HR MAX TEMP:  34;

KENOSHA        SUNNY     33  18  53 W18G26    30.02S WCI  22
6HR MIN TEMP:  28; 6HR MAX TEMP:  33;

FOND DU LAC    SUNNY     30  11  45 W16G24    29.99F WCI  19
6HR MIN TEMP:  23; 6HR MAX TEMP:  30; 6HR PCP: TRACE;

SHEBOYGAN      SUNNY     29  16  58 W15G23    29.97F WCI  18
6HR MIN TEMP:  25; 6HR MAX TEMP:  29;

WEST BEND      SUNNY     28  14  54 W16G23    29.99S WCI  17
JUNEAU         SUNNY     27  13  55 W9G17     30.02F WCI  18
6HR MIN TEMP:  21; 6HR MAX TEMP:  27;

$$

LSZ147-162-191900-
LAKE SUPERIOR

STATION/POSITION TIME  TEMP    WIND        PRES    WAVE
                       AIR SEA DIR/SP/G            HT/PER
                 (UTC) (F)     (DEG/KT/KT) (MB)    (FT/S)
DEVILS ISLAND    1800   24     250/ 18/ 24 1014.4F
SAXON HARBOR     1740   22     230/  5/ 11 1014.2F
$$

LMZ867-665-643>646-191900-
LAKE MICHIGAN

STATION/POSITION TIME  TEMP    WIND        PRES    WAVE
                       AIR SEA DIR/SP/G            HT/PER
                 (UTC) (F)     (DEG/KT/KT) (MB)    (FT/S)
N MID LAKE BUOY  1750   28 48  280/ 17/ 25 1013.1S   3/ 4
NORTHPORT PIER   1812   26     290



USA.gov is the U.S. government's official web portal to all federal, state and local government web resources and services.